TimeEDT,TemperatureF,Dew PointF,Humidity,Sea Level PressureIn,VisibilityMPH,Wind Direction,Wind SpeedMPH,Gust SpeedMPH,PrecipitationIn,Events,Conditions,WindDirDegrees,DateUTC
12:51 AM,64.9,45.0,48,30.04,10.0,SSE,9.2,-,N/A,,Clear,160,2014-04-13 04:51:00
1:51 AM,63.0,45.0,52,30.04,10.0,SSE,8.1,-,N/A,,Clear,160,2014-04-13 05:51:00
2:51 AM,64.0,44.1,48,30.03,10.0,SSE,9.2,-,N/A,,Clear,160,2014-04-13 06:51:00
3:51 AM,63.0,44.1,50,30.04,10.0,South,6.9,-,N/A,,Clear,170,2014-04-13 07:51:00
4:51 AM,57.0,43.0,59,30.06,10.0,ESE,4.6,-,N/A,,Clear,120,2014-04-13 08:51:00
5:51 AM,52.0,43.0,71,30.09,10.0,ESE,4.6,-,N/A,,Clear,120,2014-04-13 09:51:00
6:51 AM,46.4,41.0,81,30.11,10.0,Calm,Calm,-,N/A,,Clear,0,2014-04-13 10:51:00
7:51 AM,51.1,44.1,77,30.14,10.0,Calm,Calm,-,N/A,,Clear,0,2014-04-13 11:51:00
8:51 AM,57.9,46.0,65,30.14,10.0,Calm,Calm,-,N/A,,Mostly Cloudy,0,2014-04-13 12:51:00
9:51 AM,68.0,46.9,47,30.14,10.0,South,5.8,-,N/A,,Partly Cloudy,180,2014-04-13 13:51:00
10:51 AM,72.0,46.0,40,30.12,10.0,SW,10.4,29.9,N/A,,Mostly Cloudy,230,2014-04-13 14:51:00
11:51 AM,75.0,45.0,34,30.09,10.0,SSW,10.4,-,N/A,,Clear,210,2014-04-13 15:51:00
12:51 PM,77.0,44.1,31,30.04,10.0,SSW,9.2,-,N/A,,Clear,200,2014-04-13 16:51:00
1:51 PM,80.1,42.1,26,30.01,10.0,South,10.4,18.4,N/A,,Clear,170,2014-04-13 17:51:00
2:51 PM,82.9,37.9,20,29.97,10.0,SSW,9.2,18.4,N/A,,Clear,210,2014-04-13 18:51:00
3:51 PM,82.9,35.1,18,29.94,10.0,South,13.8,19.6,N/A,,Clear,190,2014-04-13 19:51:00
4:51 PM,84.2,35.6,18,29.97,10.0,South,12.7,21.9,N/A,,Clear,180,2014-04-13 20:51:00
5:51 PM,82.9,30.9,15,29.95,10.0,South,15.0,28.8,N/A,,Clear,180,2014-04-13 21:51:00
6:51 PM,79.0,35.1,20,29.96,10.0,SSW,8.1,-,N/A,,Clear,200,2014-04-13 22:51:00
7:51 PM,75.9,45.0,33,29.96,10.0,SSE,12.7,-,N/A,,Clear,160,2014-04-13 23:51:00
8:51 PM,73.9,46.0,37,29.96,10.0,South,15.0,19.6,N/A,,Clear,180,2014-04-14 00:51:00
9:51 PM,71.1,46.0,41,29.95,10.0,SSE,9.2,-,N/A,,Clear,160,2014-04-14 01:51:00
10:51 PM,70.0,46.9,44,29.96,10.0,SSE,11.5,-,N/A,,Clear,160,2014-04-14 02:51:00
11:51 PM,68.0,46.9,47,29.94,10.0,SSE,13.8,-,N/A,,Clear,160,2014-04-14 03:51:00